YB2NDX-15 Weather Reports


Display with metric or nautical units.
time (UTC)temp
F
wind
direction
speed
MPH
gust
MPH
rain 1hr
in
rain 24hr
in
rain mn
in
humidity
%
barometer
mb
20260507124724 85 0.0 0.0 0.00 0.00 0.00 1007.9
20260507123716 86 0.0 0.0 0.00 0.00 0.00 1007.7
20260507122710 86 0.0 0.0 0.00 0.00 0.00 1007.6
20260507121704 86 0.0 0.0 0.00 0.00 0.00 1007.3
20260507120657 86 0.0 0.0 0.00 0.00 0.00 1007.2
20260507115651 86 0.0 0.0 0.00 0.00 0.00 1007.1
20260507114645 87 0.0 0.0 0.00 0.00 0.00 1006.9
20260507113639 87 0.0 0.0 0.00 0.00 0.00 1006.7
20260507112633 87 0.0 0.0 0.00 0.00 0.00 1006.6
20260507111626 88 0.0 0.0 0.00 0.00 0.00 1006.5
20260507110619 88 0.0 0.0 0.00 0.00 0.00 1006.4
20260507105613 88 0.0 0.0 0.00 0.00 0.00 1006.4
20260507104606 89 0.0 0.0 0.00 0.00 0.00 1006.3
20260507103559 89 0.0 0.0 0.00 0.00 0.00 1006.1
20260507102552 90 0.0 0.0 0.00 0.00 0.00 1006.0
20260507101546 90 0.0 0.0 0.00 0.00 0.00 1005.8
20260507100539 91 0.0 0.0 0.00 0.00 0.00 1005.8
20260507095532 92 0.0 0.0 0.00 0.00 0.00 1005.8
20260507094526 93 0.0 0.0 0.00 0.00 0.00 1005.7
20260507093519 93 0.0 0.0 0.00 0.00 0.00 1005.7
20260507092513 94 0.0 0.0 0.00 0.00 0.00 1005.7
20260507091506 94 0.0 0.0 0.00 0.00 0.00 1005.7
20260507090500 95 0.0 0.0 0.00 0.00 0.00 1005.5
20260507085453 96 0.0 0.0 0.00 0.00 0.00 1005.5
20260507082434 114 0.0 0.0 0.00 0.00 0.00 1006.3
20260507081427 121 0.0 0.0 0.00 0.00 0.00 1006.6
20260507080421 112 0.0 0.0 0.00 0.00 0.00 1007.1
20260507074408 97 0.0 0.0 0.00 0.00 0.00 1005.8
20260507072355 97 0.0 0.0 0.00 0.00 0.00 1005.9
20260507071348 97 0.0 0.0 0.00 0.00 0.00 1006.1
20260507070341 96 0.0 0.0 0.00 0.00 0.00 1006.1
20260507064329 97 0.0 0.0 0.00 0.00 0.00 1006.3
20260507063322 98 0.0 0.0 0.00 0.00 0.00 1006.6
20260507062316 98 0.0 0.0 0.00 0.00 0.00 1007.0
20260507061310 98 0.0 0.0 0.00 0.00 0.00 1007.1
20260507060304 98 0.0 0.0 0.00 0.00 0.00 1007.2
20260507055258 99 0.0 0.0 0.00 0.00 0.00 1007.7
20260507054251 99 0.0 0.0 0.00 0.00 0.00 1007.9
20260507053245 99 0.0 0.0 0.00 0.00 0.00 1007.9
20260507052238 96 0.0 0.0 0.00 0.00 0.00 1007.9
20260507050225 98 0.0 0.0 0.00 0.00 0.00 1008.2
20260507045219 98 0.0 0.0 0.00 0.00 0.00 1008.4
20260507044213 98 0.0 0.0 0.00 0.00 0.00 1008.5
20260507043206 97 0.0 0.0 0.00 0.00 0.00 1008.6
20260507042200 97 0.0 0.0 0.00 0.00 0.00 1008.6
20260507041154 96 0.0 0.0 0.00 0.00 0.00 1008.7
20260507040147 96 0.0 0.0 0.00 0.00 0.00 1008.9
20260507035140 96 0.0 0.0 0.00 0.00 0.00 1009.0
20260507034133 96 0.0 0.0 0.00 0.00 0.00 1009.2
20260507033127 95 0.0 0.0 0.00 0.00 0.00 1009.4
20260507032121 95 0.0 0.0 0.00 0.00 0.00 1009.4
20260507031115 94 0.0 0.0 0.00 0.00 0.00 1009.5
20260507025102 93 0.0 0.0 0.00 0.00 0.00 1009.4
20260507024056 93 0.0 0.0 0.00 0.00 0.00 1009.5
20260507023050 92 0.0 0.0 0.00 0.00 0.00 1009.4
20260507021036 90 0.0 0.0 0.00 0.00 0.00 1009.3
20260507020030 90 0.0 0.0 0.00 0.00 0.00 1009.3
20260507015024 89 0.0 0.0 0.00 0.00 0.00 1009.4
20260507014018 89 0.0 0.0 0.00 0.00 0.00 1009.4
20260507013012 88 0.0 0.0 0.00 0.00 0.00 1009.4
20260507012005 87 0.0 0.0 0.00 0.00 0.00 1009.4
20260507010959 87 0.0 0.0 0.00 0.00 0.00 1009.4
20260507005953 87 0.0 0.0 0.00 0.00 0.00 1009.4
20260507004947 86 0.0 0.0 0.00 0.00 0.00 1009.4
20260507003940 86 0.0 0.0 0.00 0.00 0.00 1009.5
20260507002934 85 0.0 0.0 0.00 0.00 0.00 1009.4
20260507001928 84 0.0 0.0 0.00 0.00 0.00 1009.3
20260507000922 84 0.0 0.0 0.00 0.00 0.00 1009.2
20260506235915 83 0.0 0.0 0.00 0.00 0.00 1009.1
20260506234909 82 0.0 0.0 0.00 0.00 0.00 1009.0
20260506233902 81 0.0 0.0 0.00 0.00 0.00 1008.9
20260506232856 81 0.0 0.0 0.00 0.00 0.00 1008.8
20260506231850 80 0.0 0.0 0.00 0.00 0.00 1008.7
20260506230843 79 0.0 0.0 0.00 0.00 0.00 1008.7
20260506225837 79 0.0 0.0 0.00 0.00 0.00 1008.7
20260506224831 79 0.0 0.0 0.00 0.00 0.00 1008.6
20260506223824 79 0.0 0.0 0.00 0.00 0.00 1008.6
20260506222818 79 0.0 0.0 0.00 0.00 0.00 1008.5
20260506221811 80 0.0 0.0 0.00 0.00 0.00 1008.4
20260506220805 80 0.0 0.0 0.00 0.00 0.00 1008.3
20260506215759 80 0.0 0.0 0.00 0.00 0.00 1008.2
20260506214753 80 0.0 0.0 0.00 0.00 0.00 1008.0
20260506213746 80 0.0 0.0 0.00 0.00 0.00 1008.0
20260506212740 80 0.0 0.0 0.00 0.00 0.00 1008.0
20260506211733 80 0.0 0.0 0.00 0.00 0.00 1007.9
20260506210727 80 0.0 0.0 0.00 0.00 0.00 1007.9
20260506205722 80 0.0 0.0 0.00 0.00 0.00 1007.8
20260506204715 80 0.0 0.0 0.00 0.00 0.00 1007.7
20260506203709 80 0.0 0.0 0.00 0.00 0.00 1007.7
20260506202703 80 0.0 0.0 0.00 0.00 0.00 1007.7
20260506201657 80 0.0 0.0 0.00 0.00 0.00 1007.6
20260506200650 80 0.0 0.0 0.00 0.00 0.00 1007.6
20260506195643 81 0.0 0.0 0.00 0.00 0.00 1007.5
20260506194637 81 0.0 0.0 0.00 0.00 0.00 1007.6
20260506193630 81 0.0 0.0 0.00 0.00 0.00 1007.6
20260506192624 81 0.0 0.0 0.00 0.00 0.00 1007.6
20260506191618 81 0.0 0.0 0.00 0.00 0.00 1007.7
20260506190611 81 0.0 0.0 0.00 0.00 0.00 1007.7
20260506185605 81 0.0 0.0 0.00 0.00 0.00 1007.7
20260506184559 81 0.0 0.0 0.00 0.00 0.00 1007.7
20260506183552 81 0.0 0.0 0.00 0.00 0.00 1007.8
20260506182547 81 0.0 0.0 0.00 0.00 0.00 1007.8
20260506181540 81 0.0 0.0 0.00 0.00 0.00 1007.9
20260506180534 81 0.0 0.0 0.00 0.00 0.00 1008.0
20260506175528 82 0.0 0.0 0.00 0.00 0.00 1008.1
20260506174522 82 0.0 0.0 0.00 0.00 0.00 1008.2
20260506173515 82 0.0 0.0 0.00 0.00 0.00 1008.2
20260506171501 82 0.0 0.0 0.00 0.00 0.00 1008.4
20260506170455 83 0.0 0.0 0.00 0.00 0.00 1008.5
20260506165448 83 0.0 0.0 0.00 0.00 0.00 1008.5
20260506164442 83 0.0 0.0 0.00 0.00 0.00 1008.6
20260506163436 83 0.0 0.0 0.00 0.00 0.00 1008.5
20260506162429 83 0.0 0.0 0.00 0.00 0.00 1008.5
20260506161422 83 0.0 0.0 0.00 0.00 0.00 1008.5
20260506160416 83 0.0 0.0 0.00 0.00 0.00 1008.4
20260506155409 83 0.0 0.0 0.00 0.00 0.00 1008.4
20260506153356 84 0.0 0.0 0.00 0.00 0.00 1008.6
20260506152350 83 0.0 0.0 0.00 0.00 0.00 1008.5
20260506151344 83 0.0 0.0 0.00 0.00 0.00 1008.6
20260506150338 84 0.0 0.0 0.00 0.00 0.00 1008.6
20260506145332 84 0.0 0.0 0.00 0.00 0.00 1008.6
20260506144326 83 0.0 0.0 0.00 0.00 0.00 1008.5
20260506143320 84 0.0 0.0 0.00 0.00 0.00 1008.6
20260506142313 84 0.0 0.0 0.00 0.00 0.00 1008.6
20260506141307 84 0.0 0.0 0.00 0.00 0.00 1008.5
20260506135254 84 0.0 0.0 0.00 0.00 0.00 1008.6
20260506134248 84 0.0 0.0 0.00 0.00 0.00 1008.6
20260506133242 84 0.0 0.0 0.00 0.00 0.00 1008.5
20260506132235 85 0.0 0.0 0.00 0.00 0.00 1008.3
20260506131228 85 0.0 0.0 0.00 0.00 0.00 1008.1
20260506130222 85 0.0 0.0 0.00 0.00 0.00 1008.0